EW2817 Weather Reports


time (UTC)temp
C
wind
direction
speed
KPH
gust
KPH
rain 1hr
cm
rain 24hr
cm
rain mn
cm
humidity
%
barometer
mb
20260506145740 18 0 0.0 0.0 0.00 0.00 0.00 77 990.5
20260506144237 18 0 0.0 0.0 0.00 0.00 0.00 77 990.5
20260506141235 18 0 0.0 0.0 0.00 0.00 0.00 78 990.0
20260506134236 17 0 0.0 0.0 0.00 0.00 0.00 79 990.4
20260506125729 17 0 0.0 0.0 0.00 0.00 0.00 80 991.0
20260506124229 17 0 0.0 0.0 0.00 0.00 0.00 80 990.7
20260506122728 17 0 0.0 0.0 0.00 0.00 0.00 79 990.4
20260506121228 17 0 0.0 0.0 0.00 0.00 0.00 81 990.2
20260506115725 17 0 0.0 0.0 0.00 0.00 0.00 81 990.0
20260506114223 17 0 0.0 0.0 0.00 0.00 0.00 81 989.8
20260506111221 16 0 0.0 0.0 0.00 0.00 0.00 80 990.0
20260506105720 16 0 0.0 0.0 0.00 0.00 0.00 80 989.9
20260506104217 16 0 0.0 0.0 0.00 0.00 0.00 80 989.9
20260506102716 16 0 0.0 0.0 0.00 0.00 0.00 80 989.7
20260506101219 17 0 0.0 0.0 0.00 0.00 0.00 79 989.5
20260506095716 17 0 0.0 0.0 0.00 0.00 0.00 79 989.8
20260506094215 17 0 0.0 0.0 0.00 0.00 0.00 79 989.8
20260506092714 17 0 0.0 0.0 0.00 0.00 0.00 78 989.9
20260506091214 17 0 0.0 0.0 0.00 0.00 0.00 79 990.2
20260506085715 17 0 0.0 0.0 0.00 0.00 0.00 80 990.4
20260506084215 17 0 0.0 0.0 0.00 0.00 0.00 80 990.2
20260506082712 17 0 0.0 0.0 0.00 0.00 0.00 80 990.3
20260506081214 17 0 0.0 0.0 0.00 0.00 0.00 80 990.2
20260506072711 17 0 0.0 0.0 0.00 0.00 0.00 79 990.3
20260506061206 17 0 0.0 0.0 0.00 0.00 0.00 78 990.7
20260506041157 19 0 0.0 0.0 0.00 0.00 0.00 72 991.1
20260506035654 19 0 0.0 0.0 0.00 0.00 0.00 71 991.2
20260506034154 20 0 0.0 0.0 0.00 0.00 0.00 70 991.1
20260506032654 20 0 0.0 0.0 0.00 0.00 0.00 69 991.3
20260506025653 20 0 0.0 0.0 0.00 0.00 0.00 66 991.2
20260506024152 21 0 0.0 0.0 0.00 0.00 0.00 65 991.4
20260506021149 21 0 0.0 0.0 0.00 0.00 0.00 61 991.1
20260506015647 21 0 0.0 0.0 0.00 0.00 0.00 59 991.0
20260506014147 22 0 0.0 0.0 0.00 0.00 0.00 56 990.8
20260506011145 22 0 0.0 0.0 0.00 0.00 0.00 53 990.5
20260506004144 23 0 0.0 0.0 0.00 0.00 0.00 51 990.2
20260506002644 23 0 0.0 0.0 0.00 0.00 0.00 51 990.0
20260505235641 24 0 0.0 0.0 0.00 0.00 0.00 48 989.7
20260505232636 25 0 0.0 0.0 0.00 0.00 0.00 46 989.6
20260505225638 25 0 0.0 0.0 0.00 0.00 0.00 44 989.7
20260505222634 25 0 0.0 0.0 0.00 0.00 0.00 44 989.8
20260505221134 25 0 0.0 0.0 0.00 0.00 0.00 43 990.0
20260505214132 26 0 0.0 0.0 0.00 0.00 0.00 41 990.0
20260505212632 26 0 0.0 0.0 0.00 0.00 0.00 41 990.0
20260505211131 26 0 0.0 0.0 0.00 0.00 0.00 42 990.0
20260505205629 26 0 0.0 0.0 0.00 0.00 0.00 41 990.2
20260505204128 26 0 0.0 0.0 0.00 0.00 0.00 41 990.1
20260505201127 26 0 0.0 0.0 0.00 0.00 0.00 41 990.6
20260505195624 26 0 0.0 0.0 0.00 0.00 0.00 40 990.6
20260505194124 27 0 0.0 0.0 0.00 0.00 0.00 39 990.7
20260505192621 27 0 0.0 0.0 0.00 0.00 0.00 38 991.0
20260505191121 27 0 0.0 0.0 0.00 0.00 0.00 38 991.3
20260505185620 27 0 0.0 0.0 0.00 0.00 0.00 36 991.5
20260505184118 27 0 0.0 0.0 0.00 0.00 0.00 38 991.8
20260505182616 27 0 0.0 0.0 0.00 0.00 0.00 35 991.9
20260505181116 28 0 0.0 0.0 0.00 0.00 0.00 36 992.1
20260505175614 28 0 0.0 0.0 0.00 0.00 0.00 36 992.1
20260505174114 28 0 0.0 0.0 0.00 0.00 0.00 37 992.3
20260505172614 28 0 0.0 0.0 0.00 0.00 0.00 36 992.3
20260505171112 28 0 0.0 0.0 0.00 0.00 0.00 39 992.4
20260505165610 27 0 0.0 0.0 0.00 0.00 0.00 38 992.6
20260505162604 27 0 0.0 0.0 0.00 0.00 0.00 41 992.7
20260505161102 26 0 0.0 0.0 0.00 0.00 0.00 43 992.8
20260505152602 25 0 0.0 0.0 0.00 0.00 0.00 47 993.3